{"data":{"norad_id":45159,"epoch":"2026-05-25T03:31:50.767104Z","epoch_age_seconds":61999,"freshness":"FRESH","line1":"1 45159U 20008AE  26145.14711536  .00000299  00000+0  82056-3 0  9993","line2":"2 45159  87.8863  40.8461 0001706  88.3012 271.8311 13.10370815305162","mean_motion":13.10370815,"eccentricity":0.0001706,"inclination_deg":87.8863,"raan_deg":40.8461,"arg_perigee_deg":88.3012,"mean_anomaly_deg":271.8311,"bstar":0.00082056,"rev_number":30516,"period_min":109.89255739796,"perigee_km":1220.4283551013,"apogee_km":1223.0214279787,"semimajor_km":7599.86189154,"source":"CELESTRAK","updated_at":"2026-05-25T13:38:22.339303Z"}}